Weather History for Missoula, MT

Change the Weather History Date:

Sunday, September 14, 2014

  Actual Average Record
Temperature  
Mean Temperature 56 °F 58 °F  
Max Temperature 78 °F 74 °F 90 °F (1948)
Min Temperature 33 °F 42 °F 20 °F (1970)
Degree Days  
Heating Degree Days 9 7  
Month to date heating degree days 130 75  
Since 1 July heating degree days 172 159  
Cooling Degree Days 0 0  
Month to date cooling degree days 0 13  
Year to date cooling degree days 378 330  
Growing Degree Days 6 (Base 50)    
Moisture  
Dew Point 31 °F    
Average Humidity 45    
Maximum Humidity 75    
Minimum Humidity 15    
Precipitation  
Precipitation 0.00 in 0.04 in 0.80 in (1918)
Month to date precipitation 0.04 0.59  
Year to date precipitation 10.06 10.62  
Snow  
Snow 0.00 in - - ()
Month to date snowfall 0.0  
Year to date snowfall 51.9  
Since 1 July snowfall 0.0  
Snow Depth 0.00 in    
Sea Level Pressure  
Sea Level Pressure 30.06 in    
Wind  
Wind Speed 3 mph (NNW)    
Max Wind Speed 18 mph    
Max Gust Speed 23 mph    
Visibility 10 miles    
Events      
T = Trace of Precipitation, MM = Missing Value Source: NWS Daily Summary

Daily Weather History Graph

Daily Weather History Graph

Search for Another Location

Airport:

Trip Planner

Search our weather history database for the weather conditions in past years. The results will help you decide how hot, cold, wet, or windy it might be!

Date:

Astronomy

Sep. 14, 2014 Rise Set
Actual Time 7:12 AM MDT 7:49 PM MDT
Civil Twilight 6:42 AM MDT 8:20 PM MDT
Nautical Twilight 6:05 AM MDT 8:56 PM MDT
Astronomical Twilight 5:27 AM MDT 9:34 PM MDT
Moon 11:23 PM MDT (9/14) 1:44 PM MDT (9/14)
Length of Visible Light 13h 38m
Length of Day
12h 37m
Waning Gibbous, 63% of the Moon is Illuminated
Sep 14
Waning Gibbous
Sep 15
Last Quarter
Sep 24
New
Oct 1
First Quarter
Oct 8
Full

Hourly Weather History & Observations

Time (MDT) Temp. Windchill Dew Point Humidity Pressure Visibility Wind Dir Wind Speed Gust Speed Precip Events Conditions
12:53 AM 45.0 °F 42.6 °F 30.9 °F 58% 30.03 in 10.0 mi North 4.6 mph - N/A   Clear
1:53 AM 43.0 °F - 30.9 °F 62% 30.04 in 10.0 mi Calm Calm - N/A   Clear
2:53 AM 41.0 °F - 30.9 °F 67% 30.04 in 10.0 mi Calm Calm - N/A   Clear
3:53 AM 39.9 °F - 30.9 °F 70% 30.05 in 10.0 mi Calm Calm - N/A   Clear
4:53 AM 39.0 °F - 30.0 °F 70% 30.06 in 10.0 mi Calm Calm - N/A   Clear
5:53 AM 36.0 °F - 28.9 °F 76% 30.08 in 10.0 mi Calm Calm - N/A   Clear
6:53 AM 35.1 °F 32.2 °F 28.9 °F 78% 30.10 in 10.0 mi NW 3.5 mph - N/A   Clear
7:53 AM 35.1 °F - 28.9 °F 78% 30.13 in 10.0 mi Calm Calm - N/A   Clear
8:53 AM 43.0 °F - 32.0 °F 65% 30.13 in 10.0 mi Calm Calm - N/A   Clear
9:53 AM 48.0 °F - 33.1 °F 56% 30.14 in 10.0 mi Calm Calm - N/A   Clear
10:53 AM 52.0 °F - 34.0 °F 50% 30.13 in 10.0 mi Calm Calm - N/A   Clear
11:53 AM 57.0 °F - 33.1 °F 40% 30.11 in 10.0 mi Calm Calm - N/A   Clear
12:53 PM 62.1 °F - 33.1 °F 34% 30.09 in 10.0 mi Calm Calm - N/A   Clear
1:53 PM 68.0 °F - 33.1 °F 27% 30.06 in 10.0 mi WSW 4.6 mph - N/A   Clear
2:53 PM 72.0 °F - 33.1 °F 24% 30.04 in 10.0 mi Variable 4.6 mph - N/A   Clear
3:53 PM 77.0 °F - 27.0 °F 16% 30.01 in 10.0 mi Variable 5.8 mph 19.6 mph N/A   Clear
4:53 PM 77.0 °F - 28.0 °F 17% 30.00 in 10.0 mi North 13.8 mph - N/A   Clear
5:53 PM 75.0 °F - 30.0 °F 19% 30.00 in 10.0 mi North 13.8 mph - N/A   Clear
6:53 PM 72.0 °F - 30.0 °F 21% 30.01 in 10.0 mi North 9.2 mph 18.4 mph N/A   Clear
7:53 PM 66.9 °F - 30.0 °F 25% 30.02 in 10.0 mi North 10.4 mph - N/A   Clear
8:53 PM 64.9 °F - 30.0 °F 27% 30.04 in 10.0 mi NNW 9.2 mph - N/A   Clear
9:53 PM 60.1 °F - 30.0 °F 32% 30.05 in 10.0 mi NNW 4.6 mph - N/A   Clear
10:53 PM 54.0 °F - 32.0 °F 43% 30.07 in 10.0 mi Calm Calm - N/A   Clear
11:53 PM 51.1 °F - 30.0 °F 44% 30.08 in 10.0 mi Calm Calm - N/A   Clear